Theta_e
339 348 353 355 354 354 353 355 354 353 352 351 351 350 347 345 344 343 342 341 339 339 341 342 345 346 346 345 344 343 342 343 346 345 345 345 345 345 346 347 348 347 350
343 349 350 354 354 354 354 353 353 352 352 352 350 349 346 345 343 342 341 340 339 337 336 338 341 343 342 343 343 342 342 342 343 342 341 341 343 343 342 343 347 346 349
344 348 351 351 352 353 353 353 352 353 353 350 349 348 345 343 342 341 339 338 337 336 334 334 338 339 339 340 342 341 342 342 343 341 339 333 334 340 341 340 342 345 347
346 348 349 347 350 352 353 352 351 350 350 349 348 346 344 343 341 340 339 338 335 334 333 333 334 336 338 339 339 341 342 342 341 336 332 331 332 338 338 337 338 342 343
344 348 347 347 350 351 351 351 351 349 349 348 347 346 344 342 340 339 337 336 334 332 331 332 333 335 336 335 337 340 339 338 339 333 331 330 328 334 336 335 334 338 340
341 345 344 347 350 349 349 350 349 349 348 348 346 345 342 341 340 338 336 334 332 331 329 329 331 333 333 333 336 337 333 333 334 329 326 328 327 335 335 335 334 336 337
339 342 345 346 348 348 348 348 348 348 347 346 346 345 341 340 339 337 335 333 332 330 327 326 328 329 330 330 331 331 328 331 327 324 323 324 327 333 334 334 333 333 333
340 342 344 339 342 344 346 346 346 346 346 346 345 344 342 340 338 337 335 333 331 330 325 322 323 324 323 323 324 323 324 325 323 321 321 321 333 332 332 332 331 330 330
338 341 341 342 339 338 340 341 343 344 344 344 344 342 340 339 338 336 335 333 332 330 326 320 317 317 316 316 317 319 321 319 313 315 319 319 332 331 331 330 330 330 330
328 336 339 339 339 339 339 335 337 339 340 341 339 336 333 333 333 333 331 333 332 330 327 322 319 317 316 315 317 318 315 311 304 308 309 315 327 330 330 329 329 329 329
316 314 331 334 337 337 339 335 333 334 335 334 332 328 327 328 328 327 328 331 332 329 327 326 324 319 315 318 319 315 309 299 299 301 305 319 320 325 330 328 329 328 327
305 308 311 319 332 335 338 338 336 336 336 335 332 329 330 329 328 326 322 327 329 327 327 325 324 321 315 309 307 310 303 299 299 299 303 314 315 320 322 328 328 328 326
305 308 310 310 315 330 333 336 338 334 332 333 331 331 333 328 326 322 319 319 318 318 319 319 317 314 312 310 310 308 306 303 300 299 305 313 312 315 318 321 323 327 330
306 308 310 311 311 329 333 330 331 330 330 330 332 334 329 328 326 323 319 318 318 320 317 315 315 314 313 313 311 310 308 305 303 301 301 310 313 314 315 316 317 321 325
305 307 310 312 312 318 327 324 322 321 320 320 325 330 331 328 324 323 320 318 317 317 315 312 312 312 311 311 311 310 310 308 306 305 303 308 313 313 315 316 318 319 320
305 307 312 315 315 321 318 317 315 315 314 315 317 321 323 323 320 317 315 315 315 315 314 312 311 314 309 308 308 308 308 308 308 307 306 305 314 312 314 316 316 316 316
304 310 313 314 315 313 312 311 310 309 309 309 312 313 315 316 314 313 311 310 310 311 311 311 310 305 302 302 300 303 304 305 307 304 302 303 303 309 311 313 314 315 317
305 307 307 308 308 307 307 306 306 305 305 306 306 309 310 310 310 308 305 305 304 302 303 304 302 298 296 297 297 299 301 303 303 299 299 299 299 300 305 310 310 312 315
303 304 301 302 301 301 302 301 300 300 299 300 302 302 300 303 301 299 297 296 296 295 296 299 295 293 291 291 297 298 299 299 300 299 298 300 300 299 299 300 305 306 304
299 301 300 300 299 299 298 297 296 294 293 294 294 294 295 295 295 294 293 293 292 290 289 290 290 289 288 287 295 298 296 294 297 296 297 298 295 296 295 290 296 298 299
301 300 299 298 299 298 297 294 292 291 291 291 292 292 292 291 292 292 291 289 289 288 287 287 288 287 287 287 289 292 295 291 289 295 293 292 290 291 292 290 291 292 290
298 298 297 297 296 296 294 293 292 290 290 290 291 290 289 289 289 289 288 287 287 286 286 285 285 285 284 286 283 287 286 291 288 292 289 289 286 287 289 288 290 290 288
297 297 297 296 295 293 292 291 290 290 290 288 288 288 288 288 288 288 287 287 286 286 285 284 284 283 282 283 284 283 281 279 282 288 288 284 284 285 285 286 289 289 288
297 297 295 294 293 293 293 291 290 288 286 287 287 287 287 288 287 287 287 286 286 285 284 284 284 283 283 281 282 284 282 281 278 278 282 282 284 284 283 284 285 286 286
296 296 295 294 293 293 292 291 289 287 287 287 286 286 286 286 287 286 286 285 284 284 283 283 282 282 282 280 280 280 280 280 279 277 275 278 281 281 282 283 283 283 285
292 292 293 292 291 291 290 289 288 287 285 285 285 284 285 285 285 285 285 284 284 283 282 282 281 281 281 280 280 280 279 278 277 276 275 277 276 278 282 281 282 282 284
Wind_Speed
3 7 11 12 13 13 13 13 13 12 13 15 16 16 15 15 15 15 15 14 15 15 15 14 14 15 16 15 15 14 13 12 14 17 18 17 17 17 18 18 14 10 13
10 9 11 12 12 12 11 12 12 12 12 14 15 16 15 15 15 15 14 15 15 14 14 15 14 14 14 14 13 12 12 11 8 8 12 14 16 17 17 17 17 14 15
12 10 9 11 11 11 10 10 10 10 11 14 14 15 15 15 16 15 14 15 14 14 14 14 14 13 12 12 12 11 13 14 15 14 10 6 9 17 17 17 16 17 17
12 10 8 11 11 11 9 9 8 9 8 11 14 15 16 16 15 15 15 15 14 15 15 15 14 14 13 12 12 14 14 14 13 14 9 9 9 16 16 16 16 16 15
12 11 10 11 12 12 11 10 9 8 8 11 13 16 15 15 16 15 15 15 15 15 16 15 15 15 14 12 12 14 15 17 11 12 9 8 6 12 16 16 14 14 13
10 11 12 12 12 11 11 10 9 8 9 11 13 15 15 15 16 16 15 15 15 16 15 15 15 14 14 12 14 15 17 16 14 9 8 9 6 14 15 15 15 15 14
7 8 10 13 13 13 11 11 10 9 10 12 14 15 15 15 15 16 15 15 15 15 14 14 14 14 13 12 13 15 17 15 9 8 7 7 6 13 15 14 14 14 13
9 7 6 9 9 10 10 10 10 10 11 12 14 15 15 15 15 17 16 15 15 15 14 14 14 14 14 13 14 15 15 14 9 8 7 6 10 13 13 13 13 13 13
8 7 6 6 6 8 8 9 10 11 11 13 16 15 14 13 14 15 17 15 14 14 14 14 14 14 14 14 14 14 14 15 7 6 6 4 11 11 12 12 12 13 13
7 5 7 6 6 6 6 10 10 10 10 12 13 12 11 12 11 10 12 15 14 12 13 12 12 12 13 14 13 12 12 12 7 6 4 5 12 11 11 11 11 11 12
5 7 5 5 5 5 6 7 10 11 11 12 11 12 10 5 6 7 6 13 15 13 10 11 10 8 8 9 10 10 9 4 5 4 3 10 11 11 11 9 9 9 10
4 5 6 6 2 4 2 5 5 7 5 7 7 8 5 6 5 6 6 10 11 9 8 7 9 9 7 4 4 7 4 5 5 4 3 10 11 11 10 11 8 8 7
4 5 6 6 6 3 1 2 2 3 3 3 7 5 5 5 6 4 3 3 3 6 4 5 5 4 5 4 4 4 5 5 3 3 5 10 12 11 11 11 11 12 10
6 5 7 7 4 1 3 4 5 5 4 5 4 6 7 5 5 4 3 4 3 3 5 5 3 4 5 5 4 4 4 4 3 2 3 7 10 11 12 11 12 12 13
6 5 6 7 4 2 7 5 6 6 5 5 6 7 5 6 6 6 5 4 4 3 4 4 4 4 5 5 5 4 4 4 3 2 2 7 9 13 14 14 14 14 15
4 4 4 6 2 7 8 8 6 6 6 6 7 6 9 6 6 6 5 5 4 4 5 4 4 5 5 5 6 6 5 4 3 5 4 5 13 15 16 17 17 16 15
2 3 4 6 8 10 10 8 7 6 7 7 6 9 10 10 9 8 6 6 5 4 6 6 8 7 6 6 6 6 6 6 6 7 6 6 6 14 18 20 20 19 19
4 5 7 7 8 11 9 9 8 8 8 7 7 8 11 11 10 9 7 7 6 6 6 8 7 6 6 5 4 5 4 5 7 7 7 6 6 6 11 22 22 21 21
5 7 7 8 9 11 10 10 11 11 8 8 8 9 11 10 11 10 7 7 8 7 8 7 8 6 5 5 4 4 5 5 6 5 7 9 9 8 7 17 17 19 24
6 8 8 8 10 10 9 9 10 10 8 8 8 8 11 9 10 10 9 9 8 8 8 6 6 5 4 4 3 5 5 6 5 6 7 8 9 9 9 12 7 7 23
7 8 8 10 8 8 7 8 7 7 8 9 8 11 11 9 11 11 9 9 9 10 7 6 3 7 11 9 4 4 3 5 10 5 5 6 9 9 9 10 5 5 8
7 8 9 8 8 5 4 7 6 8 9 9 9 10 10 10 10 10 10 9 8 8 9 9 7 3 5 9 4 2 5 5 8 3 4 5 6 6 7 10 7 7 8
9 9 9 9 8 8 10 11 11 11 9 9 9 8 9 11 11 11 10 9 8 7 7 8 8 7 5 5 11 4 4 2 4 3 4 4 7 10 6 9 7 9 9
9 9 10 10 10 9 10 12 11 11 11 8 8 8 8 9 10 9 9 8 7 6 8 8 7 7 5 6 4 6 5 1 3 6 4 5 9 8 6 6 8 10 9
11 11 10 13 12 9 8 11 11 15 11 9 8 11 10 8 8 8 8 8 9 7 7 9 8 9 6 4 4 3 4 3 3 2 5 10 5 2 4 7 7 6 8
8 11 10 10 10 11 13 14 16 18 14 11 9 9 7 6 6 7 8 9 8 8 7 6 6 8 7 5 4 4 3 2 3 2 4 8 6 6 10 3 6 5 6
Wind_Direction
161 146 137 132 125 118 114 115 115 114 111 111 108 101 92 86 82 75 73 69 65 60 59 57 53 54 61 58 56 54 57 60 66 63 62 53 54 52 47 38 40 48 54
143 141 137 132 127 121 116 118 121 118 119 112 105 98 91 83 81 77 73 69 66 65 63 60 56 57 54 52 46 42 43 44 42 58 68 55 44 50 46 40 34 43 52
135 137 135 129 128 123 119 117 119 122 119 114 113 104 93 88 82 80 76 69 63 60 59 60 60 60 57 52 42 28 26 19 20 99 75 59 51 47 45 42 42 41 47
136 139 137 138 136 129 124 127 117 117 118 119 118 107 97 90 87 81 75 69 63 59 58 58 56 56 58 53 41 28 24 15 19 67 59 47 41 48 46 42 42 39 36
141 143 149 148 145 142 135 123 123 127 128 129 123 112 102 97 92 83 79 73 68 65 61 59 57 57 55 51 42 29 22 9 40 69 59 46 31 45 45 44 43 40 39
151 148 153 158 149 149 142 138 130 123 124 128 124 115 106 104 101 92 88 80 71 66 64 64 64 62 58 50 37 31 23 25 67 58 53 38 32 46 47 51 51 47 41
122 130 151 157 156 152 151 144 138 132 127 128 127 119 111 106 102 94 88 81 76 73 71 70 66 62 58 50 42 39 27 36 72 61 47 33 17 46 47 49 44 44 41
127 125 115 126 138 144 151 149 145 141 134 131 132 125 122 119 115 110 99 87 79 72 69 68 64 60 56 47 39 35 29 36 63 63 44 27 10 46 46 43 45 42 43
111 124 127 125 127 133 158 153 150 147 141 136 136 132 129 123 121 117 109 97 88 80 76 75 70 64 57 50 42 32 34 41 57 46 46 18 8 44 44 42 43 40 43
50 129 151 154 149 156 161 163 159 154 147 142 138 131 121 113 110 110 117 112 102 88 81 84 84 75 63 53 45 44 36 38 52 56 38 22 22 31 44 40 39 39 40
54 45 46 117 116 111 175 164 161 150 146 140 127 124 122 124 123 123 138 122 119 106 90 84 79 85 69 51 61 55 50 41 62 59 38 35 29 28 27 41 34 43 39
35 42 30 25 88 86 81 154 154 141 143 142 138 148 139 132 107 80 58 91 97 94 89 74 78 74 67 47 28 39 45 45 50 56 41 42 33 28 25 16 23 26 36
59 34 29 12 345 98 99 51 151 101 107 125 138 147 100 99 97 92 76 59 57 67 40 35 34 41 63 55 36 32 34 38 41 44 24 32 23 20 21 21 12 3 11
61 27 8 359 347 313 63 64 77 85 84 86 95 139 127 116 113 104 85 69 56 43 58 43 29 30 42 38 41 40 36 32 31 49 17 32 35 28 22 18 15 10 4
47 10 345 333 314 313 89 79 73 76 65 61 63 82 114 120 112 101 84 71 52 31 60 35 47 41 30 20 21 19 18 26 33 35 23 25 35 35 30 27 21 16 11
63 5 7 356 79 89 89 83 77 74 70 57 52 55 73 84 88 84 78 71 43 40 52 36 29 25 23 12 11 5 1 1 26 46 37 28 45 40 36 26 20 17 13
75 69 36 64 80 91 93 85 77 73 69 63 60 59 69 75 83 84 76 64 47 27 42 31 44 38 26 7 4 360 4 17 46 52 47 45 38 40 39 37 34 26 20
103 93 71 76 79 86 93 92 87 75 76 69 65 68 70 74 75 76 65 54 43 41 47 55 40 30 20 6 356 356 29 45 56 54 54 52 51 45 38 39 33 29 23
122 109 92 88 88 92 94 97 90 87 80 79 79 76 69 72 78 79 72 54 53 50 47 48 47 26 9 359 354 27 29 40 47 62 54 51 45 43 42 24 25 28 21
112 106 106 101 101 103 107 101 91 83 75 71 71 73 75 75 81 84 74 66 62 61 48 40 53 24 14 347 7 60 50 44 42 42 43 43 36 35 32 17 6 10 14
112 112 116 116 116 121 123 114 98 100 89 80 73 73 74 76 75 80 78 73 66 66 57 41 39 42 28 3 43 15 35 66 43 39 46 49 34 26 24 18 1 7 356
125 120 119 121 122 130 121 115 105 108 92 89 83 72 68 69 75 77 77 72 64 71 58 48 40 41 45 24 47 12 12 338 14 26 61 43 37 14 14 9 350 356 354
139 138 132 127 122 112 117 112 109 104 96 89 82 78 66 73 74 78 79 77 68 68 68 59 48 49 53 20 41 86 30 337 326 319 14 14 23 4 359 353 342 342 335
147 136 130 123 120 124 128 123 124 118 115 101 100 96 81 75 74 74 77 80 80 74 65 64 55 57 65 38 12 30 71 211 350 325 331 327 5 335 346 334 335 325 327
147 146 138 139 139 148 125 117 118 114 116 118 110 99 87 76 76 76 78 76 72 66 64 66 58 58 54 76 56 359 11 0 77 305 289 320 320 344 325 332 317 320 329
134 135 146 143 133 130 125 129 128 129 132 127 118 108 104 99 88 76 76 73 69 67 65 64 69 64 59 60 54 38 49 30 335 340 294 311 289 318 322 305 316 328 329